Temp
23 23 24 23 20 17 20 23 24 22 23 22 23 22 22 20 22 20 23 22 23 23 22 22 22 22 22 22 22 22 22 22 22 22 22 22 22 22 21 21 21 21 21 20 20 20 20 20 20
23 23 23 23 17 18 20 22 22 23 23 22 23 23 22 20 21 22 23 22 22 22 22 22 22 22 22 22 22 22 22 22 22 22 22 22 22 21 21 21 21 21 20 20 20 20 20 20 20
23 23 23 15 14 20 20 23 22 22 22 23 22 22 22 21 23 24 24 24 23 21 22 22 22 22 22 22 22 22 22 22 22 22 22 21 21 21 21 21 21 21 20 20 20 20 20 20 20
23 23 21 17 21 21 21 22 22 21 22 24 24 22 21 22 25 24 23 23 21 22 22 23 22 22 22 22 22 22 22 22 22 22 22 22 21 21 21 21 21 21 21 21 20 20 20 20 20
23 22 15 18 19 20 21 23 22 20 23 24 24 21 20 23 24 22 23 23 22 22 22 21 21 21 22 22 22 22 22 22 22 22 22 22 22 22 21 21 21 21 21 21 21 21 21 20 20
22 20 16 18 20 21 22 25 23 23 22 22 22 21 20 22 21 22 22 23 22 23 21 21 21 21 22 22 22 22 22 22 22 22 22 22 21 21 21 21 21 21 21 21 21 21 21 20 20
18 14 18 20 19 21 25 26 23 23 23 23 23 20 20 21 22 22 22 23 22 20 20 20 21 21 21 21 21 21 21 21 21 21 21 21 21 21 21 21 21 21 21 21 21 21 21 21 21
23 15 19 19 19 23 22 25 24 24 20 23 23 20 19 19 19 22 21 22 21 21 20 21 21 20 21 21 21 21 21 21 21 21 21 21 21 21 21 21 21 21 20 20 20 21 21 20 20
23 16 17 22 23 24 24 22 21 20 20 19 19 17 18 18 19 19 19 19 19 18 19 19 19 19 21 20 20 20 20 20 20 20 20 20 20 20 21 21 21 21 21 21 20 20 20 20 20
19 16 20 21 23 23 23 23 23 20 19 18 18 18 18 19 20 20 19 19 19 19 19 19 20 20 20 20 20 20 19 19 19 19 19 19 19 20 20 20 20 20 20 20 20 20 20 19 20
20 19 20 24 25 24 23 23 23 20 18 19 18 19 20 21 22 22 21 21 20 20 20 20 20 20 20 20 20 19 19 19 18 19 19 19 19 19 19 19 19 19 19 19 20 20 19 19 19
22 22 23 26 25 25 23 23 21 22 21 21 21 21 21 21 21 21 21 20 20 20 20 19 19 19 19 19 19 19 19 19 19 19 19 18 18 19 19 19 18 18 18 18 19 19 19 19 19
22 24 24 25 26 25 23 21 21 21 22 20 21 21 22 22 22 21 20 20 20 19 19 19 19 18 19 18 18 18 18 18 18 18 17 17 18 18 18 18 18 17 17 18 18 19 19 19 19
24 24 24 24 25 24 21 20 22 20 21 22 22 23 22 22 21 21 21 21 20 19 19 18 18 18 18 17 17 17 17 17 17 17 17 17 17 17 18 18 18 18 18 18 18 18 18 19 19
24 23 21 23 24 23 23 21 19 21 20 22 22 21 21 21 20 20 20 20 20 20 19 18 18 18 17 17 16 16 16 16 16 16 16 16 16 16 16 17 17 18 18 18 18 18 19 18 19
21 19 20 21 22 23 23 20 21 21 20 20 20 20 20 20 20 20 20 20 20 19 19 19 18 18 18 17 17 16 16 16 15 15 15 16 15 15 15 16 16 17 17 17 18 18 18 18 18
17 20 20 20 22 22 22 21 21 21 19 19 19 19 20 20 20 20 20 19 19 19 19 18 18 18 18 17 17 17 16 16 15 15 14 14 14 15 15 15 15 15 16 16 17 17 17 17 17
20 21 20 19 21 21 20 21 21 22 21 19 19 19 19 20 20 20 20 20 19 18 18 18 18 17 17 17 16 16 16 16 15 15 15 14 14 14 13 14 14 14 14 15 15 16 17 17 17
21 21 21 21 22 22 20 21 19 21 20 19 18 19 19 20 21 20 20 19 19 19 18 18 18 17 17 16 16 16 15 15 15 15 15 14 14 14 14 14 13 14 14 14 14 15 15 16 17
21 21 20 22 21 22 21 21 20 20 20 19 19 19 19 20 20 20 19 19 19 19 18 18 18 17 16 16 15 15 14 14 13 13 14 14 14 14 14 13 13 13 13 14 14 14 14 15 15
20 19 20 21 20 20 20 18 18 17 17 19 18 20 20 20 20 19 20 19 19 19 18 18 18 17 16 15 15 14 13 13 13 12 12 12 12 12 12 12 13 13 13 13 13 13 13 13 15
20 21 21 20 18 18 18 16 16 14 15 16 19 19 19 19 20 20 20 19 19 19 18 18 17 16 15 15 14 13 13 12 12 11 11 11 11 11 12 12 12 12 12 12 11 11 11 12 12
20 21 20 20 17 17 17 15 15 15 17 17 17 18 19 20 20 20 20 19 18 18 18 18 17 15 15 14 13 12 12 11 11 11 11 11 11 11 11 11 11 11 10 10 10 11 10 10 11
20 19 14 13 13 14 17 16 15 15 16 16 17 18 19 20 20 19 19 18 18 18 17 17 16 15 14 13 12 12 11 11 10 10 10 10 10 10 10 10 10 10 9 8 8 9 10 10 10
16 14 12 15 13 14 15 15 14 15 16 17 17 19 20 20 19 19 18 18 18 17 16 16 14 14 13 12 12 11 11 10 9 9 9 8 7 7 7 7 7 8 7 7 7 8 8 9 10
18 15 10 13 11 14 15 16 15 16 17 19 19 20 19 19 19 18 18 17 16 16 15 14 13 13 12 12 12 11 10 9 9 8 6 4 3 3 3 3 3 4 4 5 6 6 6 7 8
18 17 15 12 12 13 13 16 16 17 16 17 18 18 18 19 19 18 17 16 16 15 14 13 12 12 12 11 10 10 9 8 7 5 3 2 2 2 2 3 3 3 3 4 4 5 5 6 7
19 16 15 11 14 15 13 15 14 15 15 15 16 18 18 18 18 16 16 15 14 13 13 12 12 11 11 11 10 9 8 6 5 2 1 1 1 1 1 2 2 3 3 3 4 5 5 5 6
17 16 13 12 10 10 9 13 13 15 14 14 15 18 17 17 16 16 15 14 13 13 12 11 11 11 11 10 9 7 6 3 1 0 0 1 1 1 1 2 2 3 3 4 4 5 5 5 5
18 16 14 11 14 9 8 11 16 14 15 15 16 16 16 16 16 15 14 13 13 12 11 12 11 10 9 8 6 4 3 2 1 1 1 1 1 2 2 2 2 3 4 4 5 5 5 5 6
Height
1500 1499 1499 1498 1510 1515 1520 1511 1500 1503 1500 1499 1501 1502 1504 1505 1505 1520 1507 1510 1510 1516 1519 1522 1524 1526 1529 1530 1530 1531 1530 1530 1531 1532 1532 1532 1531 1531 1532 1533 1533 1533 1533 1533 1534 1534 1533 1533 1533
1500 1500 1499 1499 1521 1534 1522 1507 1507 1500 1499 1500 1501 1501 1503 1508 1505 1507 1510 1512 1515 1517 1519 1523 1526 1527 1528 1530 1532 1533 1533 1532 1531 1532 1533 1533 1533 1533 1532 1533 1533 1532 1533 1533 1534 1533 1533 1533 1533
1501 1501 1501 1510 1531 1528 1523 1506 1503 1502 1504 1501 1501 1503 1507 1510 1508 1511 1515 1515 1516 1518 1524 1525 1527 1528 1530 1530 1531 1532 1533 1533 1532 1532 1533 1533 1534 1534 1533 1533 1533 1532 1532 1532 1533 1533 1532 1532 1532
1502 1503 1506 1519 1519 1511 1505 1500 1501 1505 1503 1502 1502 1508 1512 1512 1514 1515 1515 1518 1519 1520 1525 1527 1528 1529 1531 1533 1534 1533 1533 1533 1533 1533 1533 1533 1534 1534 1533 1533 1532 1532 1531 1531 1531 1531 1531 1531 1531
1502 1504 1521 1524 1519 1509 1498 1494 1498 1505 1505 1503 1506 1513 1513 1515 1519 1521 1518 1519 1521 1522 1523 1524 1526 1529 1530 1532 1534 1534 1534 1534 1533 1533 1533 1533 1533 1533 1532 1532 1532 1531 1531 1530 1530 1530 1529 1529 1529
1504 1507 1531 1531 1518 1509 1499 1498 1502 1503 1504 1508 1507 1510 1516 1518 1520 1521 1521 1521 1520 1522 1525 1528 1529 1531 1531 1532 1533 1533 1532 1533 1533 1532 1532 1532 1532 1532 1531 1531 1530 1529 1529 1529 1528 1528 1528 1527 1527
1507 1516 1526 1521 1521 1511 1503 1503 1503 1504 1508 1510 1512 1514 1519 1520 1520 1520 1522 1521 1521 1522 1525 1527 1529 1531 1531 1531 1532 1532 1532 1532 1532 1531 1531 1530 1530 1530 1530 1529 1528 1527 1526 1526 1526 1525 1524 1524 1524
1506 1512 1520 1520 1522 1515 1506 1505 1508 1508 1512 1514 1514 1519 1523 1523 1523 1520 1522 1523 1523 1525 1526 1529 1530 1530 1530 1531 1530 1531 1532 1532 1531 1531 1530 1529 1529 1527 1527 1527 1526 1524 1523 1523 1523 1522 1522 1522 1522
1507 1522 1530 1517 1513 1512 1508 1507 1512 1517 1509 1514 1519 1521 1521 1527 1525 1525 1527 1528 1528 1530 1531 1532 1531 1531 1531 1531 1529 1529 1531 1530 1529 1529 1529 1528 1526 1525 1524 1524 1522 1521 1520 1519 1519 1518 1517 1517 1517
1508 1525 1517 1509 1507 1511 1510 1507 1513 1519 1520 1525 1526 1528 1529 1531 1530 1529 1531 1532 1534 1532 1531 1532 1531 1531 1531 1529 1528 1527 1528 1527 1527 1526 1525 1524 1522 1521 1520 1519 1519 1517 1516 1515 1515 1514 1514 1513 1512
1509 1517 1508 1505 1508 1509 1509 1511 1515 1517 1527 1526 1525 1528 1531 1531 1531 1531 1532 1532 1532 1532 1532 1533 1532 1532 1531 1530 1528 1527 1526 1525 1524 1522 1521 1520 1518 1517 1517 1515 1515 1513 1513 1511 1511 1510 1510 1510 1509
1509 1505 1507 1504 1505 1506 1508 1512 1515 1515 1520 1521 1522 1525 1527 1528 1529 1531 1532 1534 1534 1535 1535 1535 1534 1532 1530 1529 1527 1525 1525 1524 1521 1520 1517 1516 1514 1512 1511 1510 1510 1509 1508 1507 1507 1507 1506 1506 1505
1506 1503 1504 1504 1504 1506 1509 1512 1513 1517 1518 1521 1522 1524 1524 1525 1527 1529 1530 1531 1532 1533 1534 1534 1534 1532 1531 1528 1527 1525 1523 1521 1518 1516 1515 1513 1510 1507 1506 1505 1503 1503 1503 1502 1502 1501 1501 1501 1500
1504 1503 1503 1505 1505 1506 1510 1515 1514 1520 1519 1520 1522 1523 1524 1524 1526 1529 1531 1532 1532 1532 1533 1533 1532 1530 1529 1528 1526 1523 1520 1518 1516 1514 1511 1508 1506 1503 1501 1500 1497 1496 1496 1495 1495 1495 1495 1495 1494
1503 1505 1505 1504 1505 1506 1508 1517 1515 1515 1519 1519 1521 1522 1523 1524 1527 1529 1531 1532 1533 1533 1533 1532 1530 1528 1527 1525 1523 1521 1519 1515 1513 1510 1506 1505 1502 1499 1497 1495 1493 1491 1490 1489 1488 1487 1488 1488 1489
1506 1509 1519 1506 1504 1507 1508 1523 1511 1514 1516 1518 1520 1520 1521 1523 1526 1528 1529 1530 1530 1530 1531 1531 1530 1528 1525 1524 1521 1519 1516 1513 1509 1506 1504 1501 1498 1496 1493 1490 1488 1487 1485 1483 1482 1481 1481 1481 1481
1516 1523 1518 1511 1502 1504 1508 1516 1508 1514 1516 1517 1518 1518 1520 1522 1524 1526 1527 1527 1527 1527 1528 1527 1526 1525 1523 1521 1518 1515 1512 1509 1506 1503 1500 1498 1495 1492 1489 1486 1484 1483 1480 1479 1477 1475 1475 1475 1475
1523 1519 1516 1517 1502 1503 1510 1511 1508 1511 1514 1514 1516 1517 1518 1520 1522 1523 1524 1524 1525 1525 1525 1523 1522 1520 1518 1516 1514 1512 1509 1506 1503 1500 1497 1494 1491 1488 1485 1482 1479 1477 1474 1473 1472 1469 1469 1467 1468
1509 1512 1515 1505 1500 1503 1511 1510 1508 1507 1511 1514 1515 1517 1518 1520 1522 1522 1522 1523 1524 1524 1522 1521 1519 1517 1515 1513 1511 1508 1506 1503 1500 1498 1494 1491 1488 1485 1481 1477 1473 1471 1468 1466 1465 1463 1461 1460 1461
1510 1514 1518 1506 1503 1504 1509 1510 1508 1509 1508 1509 1510 1514 1518 1520 1520 1520 1521 1522 1522 1522 1519 1518 1515 1513 1512 1510 1507 1505 1502 1499 1495 1493 1490 1486 1482 1478 1474 1471 1467 1464 1461 1459 1458 1457 1455 1453 1455
1514 1518 1517 1516 1510 1508 1511 1520 1516 1511 1509 1507 1511 1515 1517 1518 1518 1519 1519 1520 1520 1518 1516 1514 1512 1510 1509 1507 1505 1502 1499 1496 1492 1488 1483 1479 1475 1472 1468 1464 1460 1457 1454 1450 1450 1449 1448 1445 1446
1518 1509 1510 1513 1520 1533 1517 1546 1522 1520 1513 1510 1510 1515 1517 1517 1517 1517 1518 1517 1516 1514 1513 1511 1509 1507 1505 1504 1501 1497 1494 1488 1485 1480 1475 1470 1467 1463 1459 1455 1451 1447 1444 1441 1440 1439 1440 1439 1437
1513 1508 1511 1513 1526 1528 1527 1539 1527 1519 1518 1515 1514 1516 1516 1516 1516 1517 1516 1515 1514 1512 1511 1508 1506 1505 1503 1501 1498 1495 1490 1485 1478 1472 1466 1460 1454 1450 1445 1443 1439 1436 1433 1430 1429 1429 1429 1430 1430
1505 1511 1521 1527 1533 1549 1528 1533 1532 1524 1517 1514 1513 1514 1514 1515 1516 1516 1515 1514 1512 1511 1508 1506 1505 1503 1500 1498 1495 1490 1484 1477 1469 1462 1454 1447 1440 1435 1432 1429 1426 1422 1420 1418 1418 1417 1417 1419 1421
1510 1528 1555 1549 1557 1552 1529 1535 1528 1515 1511 1511 1511 1512 1512 1513 1514 1514 1514 1512 1510 1509 1507 1505 1503 1501 1498 1494 1489 1483 1476 1468 1459 1451 1442 1435 1428 1422 1418 1416 1412 1409 1407 1407 1406 1406 1406 1408 1410
1512 1522 1559 1565 1571 1550 1528 1532 1524 1511 1509 1509 1510 1511 1512 1513 1512 1512 1511 1509 1508 1506 1504 1502 1501 1498 1493 1487 1481 1474 1467 1458 1448 1440 1432 1424 1418 1412 1408 1405 1403 1401 1398 1397 1396 1395 1396 1398 1399
1512 1522 1520 1544 1551 1553 1540 1524 1515 1511 1511 1510 1510 1511 1511 1510 1510 1509 1508 1507 1505 1504 1502 1499 1496 1492 1486 1479 1471 1464 1455 1446 1437 1428 1421 1415 1410 1404 1400 1396 1394 1392 1389 1388 1388 1387 1386 1387 1389
1503 1509 1529 1540 1553 1549 1542 1530 1530 1516 1513 1509 1509 1507 1508 1508 1508 1506 1506 1506 1505 1503 1500 1496 1492 1486 1478 1470 1462 1453 1444 1435 1426 1418 1413 1407 1401 1396 1391 1387 1384 1382 1381 1380 1380 1380 1380 1379 1380
1511 1515 1524 1530 1543 1560 1567 1538 1508 1506 1503 1504 1503 1506 1508 1507 1507 1506 1506 1506 1503 1500 1497 1492 1485 1478 1470 1461 1453 1443 1433 1425 1418 1412 1406 1399 1393 1388 1383 1379 1376 1374 1372 1372 1372 1372 1372 1373 1373
1500 1507 1514 1539 1533 1546 1549 1538 1497 1497 1496 1500 1502 1505 1505 1506 1507 1507 1508 1505 1502 1498 1492 1486 1480 1472 1463 1453 1443 1434 1427 1419 1412 1406 1399 1393 1385 1380 1375 1371 1368 1366 1364 1364 1363 1364 1365 1366 1367
Wind_Speed
9 6 8 3 4 5 4 1 3 3 2 2 11 4 5 5 2 4 11 21 16 12 11 10 9 8 8 8 8 8 10 11 10 9 9 9 10 12 13 12 10 9 8 8 7 7 6 6 5
6 5 5 3 5 4 5 3 3 5 3 16 15 10 4 2 4 6 15 13 5 10 13 8 7 7 8 10 9 8 8 9 9 8 8 8 8 10 10 10 10 9 9 8 8 7 7 6 6
6 6 4 4 3 1 3 3 4 7 21 3 4 7 4 2 10 13 14 5 4 3 8 6 5 5 7 11 12 11 9 8 8 8 7 6 6 7 8 9 9 9 9 9 9 9 8 8 8
6 3 5 4 2 5 5 4 13 6 6 7 15 8 7 10 13 15 16 9 7 11 8 4 3 3 4 7 10 10 9 8 6 6 6 6 6 6 7 7 8 8 8 9 10 10 10 10 10
6 4 5 2 4 5 6 1 31 7 6 14 12 4 6 19 17 14 7 6 9 9 8 9 6 4 4 5 6 8 8 7 6 6 6 7 7 8 8 8 9 9 9 10 11 11 11 11 12
4 3 5 2 5 5 7 10 21 17 24 24 16 10 5 14 15 11 12 13 13 9 5 3 2 3 3 4 5 6 7 8 7 7 8 9 11 11 11 12 12 12 12 12 13 13 13 13 13
5 4 3 2 4 6 3 9 4 15 19 14 15 5 7 11 7 4 15 13 6 5 4 4 4 4 3 3 3 4 5 7 7 7 8 10 13 15 16 16 16 16 16 16 16 16 15 15 15
3 4 3 2 3 3 8 5 16 11 6 5 5 4 4 7 11 7 11 11 15 4 5 5 5 3 3 4 3 3 3 4 5 6 8 12 15 16 18 19 20 19 19 19 19 19 18 18 18
2 5 1 3 3 4 9 21 31 26 36 30 19 20 16 26 20 18 18 12 9 9 9 6 4 3 2 6 6 5 5 7 7 7 12 15 16 17 19 20 20 21 22 22 23 22 21 21 21
4 3 6 5 1 3 9 18 13 16 29 26 30 34 37 27 26 26 22 20 16 12 10 6 4 3 3 2 5 8 10 9 10 12 14 13 15 17 19 21 23 23 24 24 25 24 24 24 24
4 5 5 4 6 8 13 13 9 26 9 25 32 35 32 27 20 18 16 13 12 11 7 7 7 6 4 2 4 7 10 12 14 16 15 14 15 17 19 20 21 22 23 26 25 23 22 21 21
2 7 7 5 5 6 7 13 6 21 21 32 33 32 28 22 19 17 17 16 12 8 8 9 10 11 11 8 7 8 11 15 17 18 19 19 17 18 17 22 24 23 23 24 24 23 22 21 22
4 3 9 8 8 15 22 11 15 25 26 27 25 22 17 15 14 14 15 18 17 11 9 12 14 16 20 17 14 12 11 13 16 20 20 20 22 22 23 23 24 26 26 27 28 28 26 26 24
4 1 6 7 8 10 11 14 11 19 26 24 22 19 16 15 15 13 11 14 17 14 11 12 15 18 22 19 16 18 19 16 14 16 19 21 22 23 25 25 25 25 26 26 32 33 32 32 30
2 2 4 2 5 5 27 3 6 31 27 25 21 19 18 18 15 11 10 10 11 13 13 12 15 20 21 23 21 25 26 23 17 16 17 19 20 21 24 26 26 25 27 29 29 31 29 28 29
4 5 4 4 6 4 9 6 4 29 29 25 23 20 18 16 12 9 7 8 10 7 5 10 14 18 20 22 22 24 27 30 24 19 18 21 22 23 23 23 24 25 27 30 31 29 30 30 31
7 1 3 7 12 4 4 5 5 28 26 26 24 23 19 16 12 7 5 4 5 4 5 9 15 18 20 23 25 26 29 29 30 26 23 22 22 23 25 25 24 25 28 28 27 31 32 33 33
3 1 4 5 4 5 4 5 2 19 24 26 25 24 21 16 9 4 3 1 2 3 5 6 11 16 18 18 19 23 28 27 29 30 28 29 28 25 25 26 28 28 27 26 26 27 29 33 37
3 2 3 4 2 4 5 4 8 18 16 18 24 23 20 14 6 5 3 3 5 5 6 7 13 13 14 14 17 21 23 26 27 29 30 34 34 30 29 28 29 31 32 31 26 25 28 33 33
4 2 4 2 6 3 3 4 3 1 8 16 27 25 20 14 13 8 6 7 5 6 6 9 13 14 13 15 18 20 21 24 25 27 32 36 39 40 38 35 33 32 33 34 33 29 28 32 32
4 5 2 0 5 4 4 7 4 4 4 11 20 22 17 15 13 7 5 2 6 7 7 12 12 12 13 15 18 19 22 25 28 30 33 35 39 41 42 41 40 37 34 33 32 31 29 29 31
4 3 3 3 4 3 4 5 4 5 4 3 21 16 9 7 6 3 3 6 8 7 11 11 12 11 13 17 19 21 25 28 31 34 38 41 42 45 45 43 42 41 37 35 33 30 29 28 26
5 2 2 2 4 2 2 3 5 3 3 1 2 7 5 5 6 2 5 6 5 10 11 12 11 11 14 15 19 24 28 32 36 40 45 50 52 51 49 46 45 41 37 35 34 35 33 29 27
4 4 7 5 3 3 3 3 4 4 6 3 4 6 3 3 2 5 5 5 10 12 11 10 10 11 13 17 23 28 35 41 45 48 51 54 56 56 54 50 45 41 37 34 34 34 36 34 32
6 6 3 4 4 5 2 2 6 5 5 6 5 3 3 1 4 5 6 9 8 7 10 11 9 13 18 24 31 37 41 44 48 53 56 56 56 54 52 45 40 37 33 32 33 34 34 33 33
4 7 5 5 2 5 5 3 5 3 7 6 9 7 2 1 2 4 5 3 4 8 9 10 15 20 27 33 40 43 46 51 54 55 51 49 46 42 41 33 31 30 31 31 31 30 28 24 29
3 2 4 7 3 2 3 4 6 1 3 8 10 6 4 1 5 4 3 4 6 6 11 15 21 29 35 41 45 49 52 52 51 46 43 35 32 34 32 35 32 32 32 31 27 26 28 30 34
4 7 3 3 3 4 4 3 5 7 9 9 8 10 2 3 6 5 2 3 5 10 16 22 29 35 42 47 50 51 51 47 43 39 33 35 34 34 34 32 28 27 29 28 24 25 26 28 28
2 1 5 4 5 5 2 5 7 10 11 10 16 10 2 1 5 1 1 4 10 16 22 27 35 44 48 51 51 49 45 41 37 35 33 33 33 32 31 30 28 28 27 25 25 26 25 25 23
3 7 6 5 5 3 4 6 2 9 10 10 8 2 3 6 1 1 4 9 15 21 27 35 42 46 49 49 47 42 38 36 34 32 32 31 32 30 29 28 27 27 26 25 24 24 23 23 21
Wind_Direction
350 355 344 359 47 60 300 332 296 108 195 142 142 145 149 48 171 192 151 160 143 166 171 164 166 163 176 174 164 154 157 155 152 151 151 154 158 162 168 173 176 177 175 174 183 190 190 191 197
1 8 6 48 75 44 295 303 26 216 179 124 129 125 86 45 49 80 151 169 112 160 168 175 174 171 184 190 184 172 163 161 158 157 156 159 164 170 176 185 191 193 195 200 209 208 203 206 218
25 19 34 83 105 181 244 115 109 126 132 132 97 69 67 360 100 121 153 133 184 119 189 172 183 188 198 200 195 188 180 174 171 171 170 173 181 185 188 192 199 203 206 211 215 217 219 218 221
18 46 62 78 263 258 222 151 168 164 255 124 111 66 66 114 130 141 158 153 119 153 173 159 188 206 222 219 209 202 199 194 190 196 197 201 210 213 215 219 219 223 226 227 228 229 229 226 226
35 55 52 34 285 278 287 18 155 165 157 125 117 93 81 111 107 77 123 170 143 134 164 178 181 212 210 205 211 211 215 219 220 225 233 236 239 246 249 247 248 247 247 247 246 244 243 240 236
57 67 55 328 299 292 318 66 113 102 96 99 100 106 99 110 96 114 88 117 133 141 161 176 191 214 188 197 204 207 212 224 229 237 249 256 259 259 259 260 261 260 257 255 253 256 257 256 254
101 78 187 258 283 342 37 63 76 105 95 65 130 85 124 115 93 107 113 138 87 114 145 168 190 205 208 208 211 217 215 220 230 244 257 262 263 264 266 265 264 264 265 265 263 259 258 259 259
81 89 13 308 318 325 2 71 102 69 34 114 125 68 99 148 91 142 121 143 131 128 137 168 240 212 252 225 214 255 268 264 256 266 275 278 273 269 267 269 271 272 270 269 268 267 267 267 266
135 60 0 302 20 342 62 88 76 86 87 76 88 95 123 118 110 114 106 119 126 119 134 119 145 55 343 233 210 230 255 265 266 276 294 290 288 280 274 275 275 274 273 271 268 264 263 262 264
96 97 229 204 265 95 91 112 119 96 90 87 94 106 123 120 114 110 104 99 98 90 89 97 71 28 13 2 215 231 235 248 254 264 285 285 288 287 283 279 277 276 274 270 268 268 265 262 262
153 185 202 270 120 141 105 81 111 116 101 131 127 125 129 132 125 111 95 76 61 55 50 46 38 26 5 305 261 256 257 251 257 264 266 265 279 281 284 283 287 286 285 277 269 265 266 269 271
201 231 186 211 156 98 113 139 86 132 149 139 135 138 136 125 109 95 84 71 60 51 46 31 16 3 358 348 325 298 276 265 261 264 262 260 265 268 272 279 283 285 287 283 280 272 269 268 269
193 231 189 177 151 121 125 116 132 141 141 144 139 138 129 116 102 82 66 56 51 51 46 40 28 18 7 348 339 328 312 291 279 268 269 270 266 266 267 269 276 284 284 280 281 276 272 274 267
321 7 126 170 181 134 119 133 123 170 154 153 156 149 142 130 119 106 73 49 44 43 43 30 22 15 8 6 358 355 347 324 294 280 272 270 269 270 269 270 273 274 276 274 275 274 274 275 271
310 40 358 162 189 126 136 261 184 166 166 161 164 156 149 137 132 120 101 80 61 35 25 19 10 8 8 10 9 10 10 356 328 296 286 280 279 277 276 274 274 273 265 266 271 273 268 273 272
44 49 19 284 152 158 161 253 172 170 168 166 168 165 156 148 143 124 98 72 43 29 28 14 1 2 2 1 4 0 4 8 0 339 309 293 288 286 284 284 283 281 274 270 269 265 268 269 274
7 237 250 307 199 135 119 242 203 181 179 171 178 172 164 159 158 136 106 84 41 17 2 360 353 354 354 350 354 352 354 356 358 358 353 341 320 301 294 291 288 284 282 284 281 270 266 266 268
232 353 280 236 256 153 147 224 241 191 192 184 186 179 175 174 165 115 96 80 316 341 334 325 344 347 340 337 339 340 344 345 347 348 347 344 340 326 313 297 288 286 285 282 283 281 271 262 261
170 222 272 293 63 113 177 200 227 204 204 192 189 185 183 180 179 175 187 243 264 309 306 316 340 328 317 316 321 327 332 334 337 338 337 335 335 333 324 313 301 289 285 284 283 283 280 268 262
59 26 315 316 7 88 150 258 340 267 242 206 188 188 185 192 207 210 229 250 270 275 295 324 328 314 303 302 312 319 323 327 327 326 327 328 329 329 326 318 312 301 293 284 280 278 278 274 268
33 120 9 64 345 32 61 334 359 320 324 182 191 180 186 211 215 218 229 253 271 278 303 316 315 303 294 300 312 315 318 318 318 319 320 321 321 320 319 316 311 304 292 288 282 278 275 276 270
162 210 138 74 52 241 48 265 303 328 353 96 156 171 184 177 181 204 220 280 280 289 308 312 304 283 288 308 309 309 311 313 315 315 314 312 311 310 309 308 307 303 293 282 282 277 270 268 271
203 171 37 115 126 93 275 81 266 348 17 316 175 162 115 125 128 214 290 296 291 294 295 308 302 280 300 298 304 310 311 312 310 308 306 306 308 308 310 309 306 299 289 282 275 271 266 259 264
104 77 44 48 64 11 258 124 284 193 205 228 231 191 109 127 231 253 252 271 300 303 314 332 317 292 296 310 315 313 312 311 310 311 311 311 310 309 307 306 302 294 284 278 274 272 268 260 255
72 58 351 359 9 222 274 103 241 276 218 197 187 179 160 265 273 279 231 295 295 317 333 325 301 308 318 317 314 313 314 313 313 314 313 311 309 306 304 303 296 288 280 277 274 272 270 264 255
163 146 150 196 211 270 315 260 259 297 190 202 174 175 207 259 281 204 289 286 322 323 314 311 316 321 321 319 319 319 317 316 315 315 312 308 308 306 306 298 286 282 282 278 279 272 269 257 247
183 144 172 105 15 45 269 301 327 279 261 202 203 207 210 54 184 235 231 304 311 315 324 323 324 324 323 324 322 320 320 318 316 315 312 314 305 296 290 290 278 279 281 284 280 274 274 262 249
143 155 76 17 150 242 288 268 228 208 230 236 234 221 271 163 180 178 287 319 337 331 326 328 327 326 326 325 324 321 320 320 320 321 314 315 313 308 302 299 290 282 280 280 275 271 269 271 263
57 134 56 116 138 169 210 258 214 204 215 218 228 223 189 146 164 244 353 334 326 324 326 328 329 329 326 325 323 322 326 329 326 325 321 316 312 310 305 299 292 286 279 274 271 268 267 267 267
185 201 145 132 223 219 155 273 276 227 220 232 213 153 122 146 207 352 317 321 325 329 333 332 327 326 326 325 327 332 332 332 330 330 329 326 321 315 307 300 294 287 279 275 269 265 261 259 254